Flag for Japan Weather past 2 weeks in Utsunomiya, Japan

Now
91 °F

Hot.


Feels Like: 101 °F
Forecast: 73 / 93 °F
Wind: 5 mph from South

Location: Mito

Current Time: Jul 31, 2015 at 12:13:35 PM

Latest Report: Jul 31, 2015 at 11:00 AM


Visibility: N/A

Pressure: 29.82 "Hg

Humidity: 58%

Dew point: 74 °F

Location of UtsunomiyaLocation

Historic Weather in Utsunomiya — Graph

°F

Utsunomiya temperature yesterday

Maximum temperature yesterday: 84 °F (at 11:00 AM)
Minimum temperature yesterday: 76 °F (at 5:00 AM)
Average temperature yesterday: 80 °F

Past Weeks' High & Low Weather Summary

 TemperatureHumidityPressure
High93 °F (Jul 26, 1:00 PM)99% (Jul 21, 2:00 AM)29.98 "Hg (Jul 21, 2:00 AM)
Low74 °F (Jul 21, 5:00 AM)48% (Jul 22, 2:00 PM)29.69 "Hg (Jul 28, 3:00 PM)
Average81 °F81%29.82 "Hg
* Reported Jul 16 10:00 AM — Jul 31 10:00 AM, Utsunomiya, Weather by CustomWeather, © 2015

Note: Actual official high and low records may vary slightly from our data, if they occured in-between our weather recording intervals... More about our weather records

Advertising

Utsunomiya weather history for previous 24 hours

 ConditionsComfort  
Time TempWeatherWind HumidityBarometerVisibility
10:00 AM
Fri, Jul 31
89 °FHot.3 mph63%29.83 "HgN/A
9:00 AM87 °FPassing clouds.3 mph66%29.83 "Hg9 mi
8:00 AM84 °FWarm.1 mph75%29.83 "HgN/A
7:00 AM80 °FWarm.2 mph83%29.83 "HgN/A
5:00 AM75 °FMild.1 mph91%29.82 "HgN/A
4:00 AM75 °FMild.3 mph92%29.81 "HgN/A
3:00 AM75 °FFog.3 mph90%29.80 "Hg5 mi
2:00 AM75 °FMild.3 mph94%29.80 "HgN/A
1:00 AM76 °FMild.3 mph94%29.81 "HgN/A
12:00 AM77 °FWarm.3 mph91%29.80 "HgN/A
11:00 PM
Thu, Jul 30
78 °FWarm.3 mph87%29.83 "HgN/A
10:00 PM78 °FWarm.1 mph87%29.82 "HgN/A
9:00 PM79 °FOvercast.2 mph85%29.83 "Hg9 mi
8:00 PM79 °FWarm.2 mph82%29.82 "HgN/A
7:00 PM79 °FWarm.2 mph82%29.81 "HgN/A
6:00 PM80 °FWarm.3 mph81%29.80 "HgN/A
5:00 PM80 °FWarm.5 mph80%29.80 "HgN/A
4:00 PM82 °FWarm.7 mph74%29.80 "HgN/A
3:00 PM83 °FOvercast.6 mph73%29.80 "Hg9 mi
2:00 PM82 °FWarm.7 mph77%29.80 "HgN/A
1:00 PM81 °FWarm.7 mph78%29.80 "HgN/A
Weather by CustomWeather, © 2015

See weather overviewHow to use our weather pages